When you browse on this site, cookies collect data to enhance your experience and personalize the content and advertising you see.
Visit our Privacy Policy to learn more. By continuing to use the site, you agree to this use of cookies and data.
  • In Lithuania
  • List of Countries
  • For 7 days
  • Water Temperature
  • Weather Map
  • Weather Widgets
  • user-avatar
    Login

    Hourly Weather Sadry

    Today, 20 February, Thursday

    Time Temperature Precipitation Wind Pressure Humidity
    00:00 +1°C° 0.3 mm 4 mps 746 mmHg 91%
    01:00 +1°C° 0.3 mm 4 mps 747 mmHg 88%
    02:00 +1°C° 0 mm 4 mps 747 mmHg 88%
    03:00 +1°C° 0 mm 4 mps 748 mmHg 88%
    04:00 +1°C° 0 mm 4 mps 748 mmHg 87%
    05:00 +2°C° 0 mm 3 mps 749 mmHg 88%
    06:00 +2°C° 0 mm 3 mps 749 mmHg 89%
    07:00 +2°C° 0 mm 3 mps 749 mmHg 90%
    08:00 +2°C° 0 mm 3 mps 750 mmHg 87%
    09:00 +3°C° 0 mm 3 mps 751 mmHg 83%
    10:00 +3°C° 0 mm 3 mps 751 mmHg 80%
    11:00 +3°C° 0 mm 3 mps 751 mmHg 77%
    12:00 +4°C° 0 mm 3 mps 752 mmHg 75%
    13:00 +4°C° 0 mm 3 mps 752 mmHg 72%
    14:00 +5°C° 0 mm 2 mps 752 mmHg 72%
    15:00 +5°C° 0 mm 2 mps 752 mmHg 71%
    16:00 +5°C° 0 mm 2 mps 751 mmHg 71%
    17:00 +3°C° 0 mm 3 mps 752 mmHg 74%
    18:00 +2°C° 0 mm 3 mps 752 mmHg 77%
    19:00 +2°C° 0 mm 3 mps 752 mmHg 79%
    20:00 0°C° 0 mm 4 mps 751 mmHg 81%
    21:00 0°C° 0 mm 4 mps 751 mmHg 83%
    22:00 0°C° 0 mm 4 mps 750 mmHg 84%
    23:00 0°C° 0 mm 5 mps 750 mmHg 83%

    Tomorrow, 21 February, Friday

    Time Temperature Precipitation Wind Pressure Humidity
    00:00 -1°C° 0 mm 6 mps 749 mmHg 82%
    01:00 -2°C° 0 mm 6 mps 749 mmHg 80%
    02:00 -1°C° 0 mm 7 mps 748 mmHg 79%
    03:00 -1°C° 0 mm 7 mps 747 mmHg 77%
    04:00 -1°C° 0 mm 7 mps 746 mmHg 76%
    05:00 -1°C° 0 mm 7 mps 746 mmHg 81%
    06:00 -1°C° 0 mm 7 mps 745 mmHg 86%
    07:00 -1°C° 0 mm 7 mps 744 mmHg 91%
    14:00 +3°C° 0 mm 6 mps 747 mmHg 69%
    15:00 +3°C° 0 mm 5 mps 748 mmHg 69%
    16:00 +4°C° 0 mm 4 mps 749 mmHg 69%
    17:00 +3°C° 0 mm 4 mps 750 mmHg 73%
    18:00 +3°C° 0 mm 4 mps 750 mmHg 77%
    19:00 +1°C° 0 mm 4 mps 751 mmHg 82%
    20:00 +1°C° 0 mm 4 mps 751 mmHg 82%
    21:00 0°C° 0 mm 4 mps 751 mmHg 82%
    22:00 0°C° 0 mm 4 mps 752 mmHg 82%
    23:00 0°C° 0 mm 4 mps 752 mmHg 83%

    Day after tomorrow, 22 February, Saturday

    Time Temperature Precipitation Wind Pressure Humidity
    00:00 0°C° 0 mm 4 mps 752 mmHg 84%
    01:00 +1°C° 0 mm 4 mps 753 mmHg 85%
    02:00 0°C° 0 mm 4 mps 753 mmHg 86%
    03:00 0°C° 0 mm 5 mps 752 mmHg 88%
    04:00 -1°C° 0 mm 5 mps 752 mmHg 89%
    05:00 -1°C° 0 mm 5 mps 752 mmHg 89%
    06:00 -1°C° 0 mm 5 mps 752 mmHg 89%
    07:00 -1°C° 0 mm 5 mps 752 mmHg 89%
    08:00 -2°C° 0 mm 6 mps 751 mmHg 88%
    09:00 -1°C° 0 mm 6 mps 751 mmHg 86%
    10:00 0°C° 0 mm 7 mps 750 mmHg 84%
    11:00 0°C° 0 mm 7 mps 750 mmHg 82%
    12:00 +1°C° 0 mm 8 mps 749 mmHg 80%
    13:00 +2°C° 0 mm 9 mps 748 mmHg 78%
    14:00 +2°C° 0.1 mm 9 mps 747 mmHg 78%
    15:00 +2°C° 0.1 mm 9 mps 746 mmHg 77%
    16:00 +1°C° 0.1 mm 9 mps 745 mmHg 76%
    17:00 +2°C° 0.2 mm 9 mps 744 mmHg 77%
    18:00 +2°C° 0.2 mm 9 mps 744 mmHg 77%
    19:00 +2°C° 0.2 mm 9 mps 743 mmHg 78%
    20:00 +3°C° 0.1 mm 9 mps 743 mmHg 77%
    21:00 +3°C° 0.1 mm 9 mps 742 mmHg 76%
    22:00 +3°C° 0.1 mm 9 mps 742 mmHg 75%
    23:00 +3°C° 0.4 mm 9 mps 742 mmHg 77%

    23 February, Sunday

    Time Temperature Precipitation Wind Pressure Humidity
    00:00 +4°C° 0.4 mm 8 mps 741 mmHg 80%
    01:00 +2°C° 0.4 mm 8 mps 741 mmHg 82%
    02:00 +2°C° 0.3 mm 8 mps 741 mmHg 80%
    03:00 +1°C° 0.3 mm 8 mps 741 mmHg 79%
    04:00 0°C° 0.3 mm 7 mps 741 mmHg 77%
    05:00 0°C° 0.1 mm 8 mps 742 mmHg 76%
    06:00 0°C° 0.1 mm 8 mps 742 mmHg 76%
    07:00 0°C° 0.1 mm 8 mps 742 mmHg 75%
    08:00 0°C° 0.1 mm 9 mps 742 mmHg 72%
    09:00 +1°C° 0.1 mm 9 mps 742 mmHg 68%
    10:00 +1°C° 0.1 mm 9 mps 742 mmHg 65%
    11:00 +1°C° 0.3 mm 9 mps 743 mmHg 64%
    12:00 +2°C° 0.3 mm 9 mps 743 mmHg 63%
    13:00 +2°C° 0.3 mm 9 mps 743 mmHg 62%
    14:00 +2°C° 0.2 mm 8 mps 742 mmHg 62%
    15:00 +2°C° 0.2 mm 7 mps 742 mmHg 62%
    16:00 +2°C° 0.2 mm 6 mps 742 mmHg 63%
    17:00 +1°C° 0.1 mm 6 mps 741 mmHg 66%
    18:00 +1°C° 0.1 mm 5 mps 741 mmHg 69%
    19:00 0°C° 0.1 mm 4 mps 740 mmHg 72%
    20:00 0°C° 0 mm 4 mps 740 mmHg 76%
    21:00 0°C° 0 mm 4 mps 740 mmHg 79%
    22:00 -1°C° 0 mm 4 mps 739 mmHg 83%
    23:00 -1°C° 0 mm 5 mps 739 mmHg 84%

    24 February, Monday

    Time Temperature Precipitation Wind Pressure Humidity
    00:00 -1°C° 0 mm 5 mps 739 mmHg 85%
    01:00 -1°C° 0 mm 5 mps 739 mmHg 86%
    02:00 -2°C° 0 mm 6 mps 738 mmHg 88%
    03:00 -2°C° 0 mm 7 mps 738 mmHg 90%
    04:00 -1°C° 0 mm 7 mps 738 mmHg 92%
    05:00 -1°C° 0.4 mm 9 mps 739 mmHg 91%
    06:00 -2°C° 0.4 mm 10 mps 740 mmHg 91%
    07:00 -1°C° 0.4 mm 11 mps 741 mmHg 90%
    08:00 0°C° 0.1 mm 10 mps 742 mmHg 81%
    09:00 +1°C° 0.1 mm 10 mps 744 mmHg 72%
    10:00 +1°C° 0.1 mm 9 mps 745 mmHg 63%
    11:00 +2°C° 0 mm 9 mps 746 mmHg 61%
    12:00 +2°C° 0 mm 9 mps 747 mmHg 60%
    13:00 +2°C° 0 mm 9 mps 747 mmHg 58%
    14:00 +2°C° 0 mm 8 mps 748 mmHg 60%
    15:00 +2°C° 0 mm 7 mps 749 mmHg 62%
    16:00 +2°C° 0 mm 7 mps 749 mmHg 64%
    17:00 +1°C° 0 mm 6 mps 750 mmHg 69%
    18:00 0°C° 0 mm 5 mps 750 mmHg 74%
    19:00 -1°C° 0 mm 4 mps 751 mmHg 79%
    20:00 0°C° 0 mm 3 mps 751 mmHg 80%
    21:00 0°C° 0 mm 3 mps 751 mmHg 82%
    22:00 -1°C° 0 mm 2 mps 751 mmHg 83%
    23:00 -1°C° 0 mm 2 mps 750 mmHg 81%

    25 February, Tuesday

    Time Temperature Precipitation Wind Pressure Humidity
    00:00 -1°C° 0 mm 3 mps 750 mmHg 79%
    01:00 0°C° 0 mm 3 mps 749 mmHg 77%
    02:00 -1°C° 0 mm 4 mps 748 mmHg 76%
    03:00 -1°C° 0 mm 5 mps 747 mmHg 76%
    04:00 -2°C° 0 mm 6 mps 746 mmHg 75%
    05:00 -2°C° 0.7 mm 7 mps 745 mmHg 82%
    06:00 -3°C° 0.7 mm 7 mps 744 mmHg 89%
    07:00 -4°C° 0.7 mm 8 mps 743 mmHg 96%
    08:00 -2°C° 0.5 mm 7 mps 742 mmHg 95%
    09:00 -1°C° 0.5 mm 7 mps 741 mmHg 94%
    10:00 +1°C° 0.5 mm 6 mps 741 mmHg 92%
    11:00 +2°C° 0 mm 6 mps 740 mmHg 91%
    12:00 +3°C° 0 mm 5 mps 740 mmHg 91%
    13:00 +5°C° 0 mm 5 mps 740 mmHg 90%
    14:00 +5°C° 0.1 mm 5 mps 739 mmHg 89%
    15:00 +5°C° 0.1 mm 4 mps 739 mmHg 89%
    16:00 +6°C° 0.1 mm 4 mps 738 mmHg 88%
    17:00 +5°C° 0.1 mm 4 mps 738 mmHg 90%
    18:00 +5°C° 0.1 mm 3 mps 738 mmHg 91%
    19:00 +5°C° 0.1 mm 3 mps 737 mmHg 93%
    20:00 +4°C° 0.1 mm 3 mps 737 mmHg 93%
    21:00 +5°C° 0.1 mm 2 mps 737 mmHg 93%
    22:00 +5°C° 0.1 mm 2 mps 736 mmHg 93%
    23:00 +4°C° 0 mm 2 mps 736 mmHg 92%
    Show more